Location: Spondin
(51.8528°N, 111.6118°W)
Time: 17:58:19
(UTC+00:00)

Vanguard 2 Rocket - Pass Details

Date: 28 May 2022
Orbit: 553 x 3323 km, 32.9° (Epoch: 02 July)

Event Time Altitude Azimuth Distance (km) Brightness Sun altitude
Rises 22:54:44 0° 255° (WSW) 7,224 12.4 39.6°
Reaches altitude 10° 23:00:32 10° 248° (WSW) 6,003 12.3 38.7°
Maximum altitude 23:15:08 34° 193° (SSW) 3,477 10.5 36.5°
Drops below altitude 10° 23:25:02 10° 135° (SE) 4,049 10.0 35.0°
Sets 23:28:04 0° 125° (SE) 4,688 10.2 34.6°
